Epoch 2022 Aug. 9.0 TT = JDT 2459800.5 T 2020 Dec. 10.45773 TT Rudenko q 2.2867048 (2000.0) P Q z +0.0043047 Peri. 342.43399 -0.88108886 -0.47119816 +/-0.0000113 Node 190.82261 -0.40374956 +0.70458915 e 0.9901565 Incl. 167.48825 -0.24631020 +0.53059064 H 15.0 >From 77 observations 2021 Mar. 5-June 4, mean residual 0".5.
H = 17.5 G = 0.15